Regional Weather Roundup
Issued by NWS Sioux Falls, SD

Home | Current Version | Previous Version | Text Only | Print | Product List | Glossary On
Versions: 1 2 3 4 5 6 7 8 9 10 11 12 13 14 15 16 17 18 19 20 21 22 23 24 25 26 27 28 29 30 31 32 33 34 35 36 37 38 39 40 41 42 43 44 45 46 47 48 49 50
000
ASUS43 KFSD 260710
RWRFSD

WEATHER ROUNDUP FOR SE SOUTH DAKOTA/SW MINNESOTA/NW IOWA
NATIONAL WEATHER SERVICE SIOUX FALLS SD
200 AM CDT MON JUN 26 2017

NOTE: "FAIR" INDICATES FEW OR NO CLOUDS BELOW 12,000 FEET WITH NO
SIGNIFICANT WEATHER AND OR OBSTRUCTIONS TO VISIBILITY.


SDZ038>040-050-052>070-260800-
SOUTHEAST SOUTH DAKOTA

CITY           SKY/WX    TMP DP  RH WIND       PRES   REMARKS
BROOKINGS      CLEAR     49  46  90 CALM      30.22S
CHAMBERLAIN    PTCLDY    58  48  71 NE7       30.21R
HURON          CLEAR     50  50 100 N3        30.22S
MADISON        FAIR      50  50 100 CALM      30.22F
MITCHELL       MOCLDY    57  51  80 E6        30.21F
SIOUX FALLS    MOCLDY    55  53  93 S5        30.20F
WINNER         FAIR      55  45  68 NE8       30.20R
YANKTON        PTCLDY    55  50  82 E13       30.19F
$$

MNZ071-072-080-081-089-090-097-098-260800-
SOUTHWEST MINNESOTA

CITY           SKY/WX    TMP DP  RH WIND       PRES   REMARKS
FAIRMONT       CLOUDY    57  50  77 W8        30.19R
JACKSON        CLOUDY    54  50  87 CALM      30.20F
LUVERNE        CLOUDY    54  50  87 CALM      30.23R
MARSHALL       CLEAR     49  46  90 W6        30.20S
MONTEVIDEO     PTCLDY    52  46  82 NW6       30.20R
PIPESTONE      MOCLDY    54  48  82 CALM      30.21S
REDWOOD FALLS  CLEAR     51  45  79 W7        30.18S
TRACY          CLOUDY    54  49  84 W5        30.20F
WINDOM         CLOUDY    55  48  76 W6        30.19F
WORTHINGTON    CLOUDY    53  51  93 W7        30.22S
$$

IAZ001>003-012>014-020>022-031-032-NEZ013-014-SDZ071-260800-
NORTHWEST IOWA

CITY           SKY/WX    TMP DP  RH WIND       PRES   REMARKS
CHEROKEE       MOCLDY    53  51  92 N6        30.22S
DENISON        RAIN      57  46  67 N17G24    30.24R
ESTHERVILLE    CLOUDY    54  52  93 NW8       30.19S
LE MARS        CLOUDY    57  48  72 NE9G16    30.24R
ORANGE CITY    LGT RAIN  55  52  88 NE5       30.23R
SHELDON        LGT RAIN  54  52  94 SE3       30.20F
SIOUX CITY     LGT RAIN  57  51  80 E7        30.19F
SPENCER        LGT RAIN  55  52  89 W5        30.21F
STORM LAKE     CLOUDY    54  50  87 NE6       30.21F
$$

ABBREVIATIONS USED IN REMARKS
   TC - TEMPERATURE IN CELSIUS
  WCI - WIND CHILL INDEX
   HX - HEAT INDEX
  VSB - VISIBILITY





USA.gov is the U.S. government's official web portal to all federal, state and local government web resources and services.